Escondido, California, United States (92025)
Lat: 33.12N, Lon: 117.09W
Wx Zone: CAZ050
Local Info
Past Weather Observations for Yesterday

NOTE: This archive is for the closest National Weather Service station to Escondido. Information may differ from the station used for current weather conditions.

Time Weather Temperature Dewpoint Humidity Pressure Winds Precip Visibility
23:53
Overcast
57°F / 14°C 52°F / 11°C 82% 29.89 in
(1012 mb)
S 3.5 mph
(S 6 kph)
- 8SM
22:53
Overcast
57°F / 14°C 54°F / 12°C 88% 29.89 in
(1012 mb)
SE 3.5 mph
(SE 6 kph)
- 7SM
22:00
Overcast
57°F / 14°C 54°F / 12°C 88% 29.89 in
(1012 mb)
Calm - 7SM
21:53
Clear
57°F / 14°C 54°F / 12°C 88% 29.89 in
(1012 mb)
Calm - 7SM
21:03
Clear
57°F / 14°C 52°F / 11°C 82% 29.86 in
(1011 mb)
Calm - 8SM
20:53
Overcast
57°F / 14°C 52°F / 11°C 82% 29.86 in
(1011 mb)
Calm - 8SM
19:53
Overcast
59°F / 15°C 52°F / 11°C 77% 29.83 in
(1010 mb)
S 4.6 mph
(S 7 kph)
- 8SM
18:53
Overcast
59°F / 15°C 52°F / 11°C 77% 29.83 in
(1010 mb)
SW 5.8 mph
(SW 9 kph)
- 8SM
17:53
Mostly Cloudy
61°F / 16°C 52°F / 11°C 72% 29.83 in
(1010 mb)
SW 6.9 mph
(SW 11 kph)
- 8SM
17:51
Mostly Cloudy
61°F / 16°C 52°F / 11°C 72% 29.8 in
(1009 mb)
SW 8.1 mph
(SW 13 kph)
- 8SM
16:53
Partly Cloudy
61°F / 16°C 52°F / 11°C 72% 29.8 in
(1009 mb)
SW 8.1 mph
(SW 13 kph)
- 8SM
15:53
Clear
63°F / 17°C 54°F / 12°C 73% 29.8 in
(1009 mb)
SW 8.1 mph
(SW 13 kph)
- 8SM
14:53
Partly Cloudy
63°F / 17°C 54°F / 12°C 73% 29.8 in
(1009 mb)
SSW 10.4 mph
(SSW 17 kph)
- 9SM
13:53
Clear
63°F / 17°C 52°F / 11°C 68% 29.83 in
(1010 mb)
SSW 11.5 mph
(SSW 19 kph)
- 10SM
12:53
Clear
64°F / 18°C 52°F / 11°C 64% 29.83 in
(1010 mb)
SSW 9.2 mph
(SSW 15 kph)
- 10SM
11:53
Clear
64°F / 18°C 52°F / 11°C 64% 29.83 in
(1010 mb)
SSW 9.2 mph
(SSW 15 kph)
- 10SM
10:53
Clear
63°F / 17°C 52°F / 11°C 68% 29.86 in
(1011 mb)
SW 9.2 mph
(SW 15 kph)
- 10SM
09:53
Clear
63°F / 17°C 50°F / 10°C 64% 29.86 in
(1011 mb)
SSW 6.9 mph
(SSW 11 kph)
- 9SM
08:53
Partly Cloudy
61°F / 16°C 50°F / 10°C 68% 29.86 in
(1011 mb)
Variable 3.5 mph
(Variable 6 kph)
- 8SM
08:30
Overcast
59°F / 15°C 50°F / 10°C 72% 29.86 in
(1011 mb)
Calm - 7SM
07:53
Overcast
57°F / 14°C 50°F / 10°C 77% 29.86 in
(1011 mb)
Calm - 7SM
06:53
Overcast
55°F / 13°C 50°F / 10°C 82% 29.86 in
(1011 mb)
SE 4.6 mph
(SE 7 kph)
- 8SM
05:53
Overcast
55°F / 13°C 50°F / 10°C 82% 29.86 in
(1011 mb)
ENE 3.5 mph
(ENE 6 kph)
- 8SM
04:53
Overcast
57°F / 14°C 52°F / 11°C 82% 29.86 in
(1011 mb)
S 3.5 mph
(S 6 kph)
- 9SM
03:53
Overcast
57°F / 14°C 52°F / 11°C 82% 29.86 in
(1011 mb)
Calm - 10SM
02:53
Overcast
57°F / 14°C 52°F / 11°C 82% 29.86 in
(1011 mb)
Calm - 10SM
01:53
Overcast
57°F / 14°C 52°F / 11°C 82% 29.86 in
(1011 mb)
Variable 3.5 mph
(Variable 6 kph)
- 9SM
00:53
Overcast
57°F / 14°C 52°F / 11°C 82% 29.89 in
(1012 mb)
Calm - 9SM
Time Weather Temperature Dewpoint Humidity Pressure Winds Precip Visibility


Weather for websites

WeatherForYou.com, LLC is not responsible for any damages or problems caused by this service. Current weather conditions are obtained from the closest station including government and personal stations which may have varying degrees of accuracy. Weather forecasts are derived from the NOAA NDFD. Like all things, this site belongs to Jesus Christ... He just trusts me to maintain it. If you have any questions or comments email webmaster@weatherforyou.com

Copyright © 2014, WeatherForYou.com LLC. All rights reserved.